This is the latest recevied weather packets stored in our database for station/object dl1wer-13. If no packets are shown the sender has not sent any weather packets the latest 10 day(s).
| Time | Temp. | Humidity | Pressure | Rain* | Wind** | Luminosity | Snow |
|---|---|---|---|---|---|---|---|
| 1777824021 | 24.44° C | 30% | 1038.7 hPa | 0 mm | - | - | - |
| 1777823420 | 24.44° C | 30% | 1038.6 hPa | 0 mm | - | - | - |
| 1777822819 | 25° C | 29% | 1038.6 hPa | 0 mm | - | - | - |
| 1777822221 | 25.56° C | 26% | 1038.7 hPa | 0 mm | - | - | - |
| 1777821619 | 25.56° C | 26% | 1038.9 hPa | 0 mm | - | - | - |
| 1777821019 | 25.56° C | 28% | 1038.7 hPa | 0 mm | - | - | - |
| 1777820420 | 25° C | 27% | 1038.8 hPa | 0 mm | - | - | - |
| 1777819820 | 24.44° C | 28% | 1038.9 hPa | 0 mm | - | - | - |
| 1777819219 | 24.44° C | 28% | 1038.6 hPa | 0 mm | - | - | - |
| 1777818620 | 23.89° C | 26% | 1038.9 hPa | 0 mm | - | - | - |
| 1777818020 | 23.89° C | 26% | 1039.2 hPa | 0 mm | - | - | - |
| 1777817420 | 23.89° C | 28% | 1039.4 hPa | 0 mm | - | - | - |
| 1777816820 | 23.89° C | 28% | 1039.4 hPa | 0 mm | - | - | - |
| 1777816219 | 23.89° C | 30% | 1039.5 hPa | 0 mm | - | - | - |
| 1777815620 | 23.89° C | 31% | 1039.5 hPa | 0 mm | - | - | - |
| 1777815020 | 23.89° C | 25% | 1039.5 hPa | 0 mm | - | - | - |
| 1777814419 | 24.44° C | 26% | 1039.5 hPa | 0 mm | - | - | - |
| 1777813820 | 23.89° C | 25% | 1039.8 hPa | 0 mm | - | - | - |
| 1777813220 | 24.44° C | 25% | 1039.9 hPa | 0 mm | - | - | - |
| 1777812620 | 24.44° C | 24% | 1039.9 hPa | 0 mm | - | - | - |
| 1777812020 | 25° C | 23% | 1039.6 hPa | 0 mm | - | - | - |
| 1777811420 | 25° C | 23% | 1040 hPa | 0 mm | - | - | - |
| 1777810820 | 24.44° C | 21% | 1040.1 hPa | 0 mm | - | - | - |
| 1777810220 | 24.44° C | 24% | 1040.1 hPa | 0 mm | - | - | - |
| 1777809620 | 25° C | 24% | 1040.2 hPa | 0 mm | - | - | - |
* Rain latest hour (hover to see other rain measurements)
** Current wind speed in m/s (hover to see current wind gust speed)